Regional Weather Roundup
Issued by NWS

Home | Current Version | Previous Version | Text Only | Print | Product List | Glossary Off
Versions: 1 2 3 4 5 6 7 8 9 10 11 12 13 14 15 16 17 18 19 20 21 22 23 24 25 26 27 28 29 30 31 32 33 34 35 36 37 38 39 40 41 42 43 44 45 46 47 48 49 50

000
ASUS45 KCYS 281010
RWRWY

WYOMING REGIONAL WEATHER ROUNDUP
NATIONAL WEATHER SERVICE CHEYENNE WY
400 AM MDT THU AUG 28 2014

NOTE:  "FAIR" INDICATES FEW OR NO CLOUDS BELOW 12,000 FEET
WITH NO SIGNIFICANT WEATHER AND/OR OBSTRUCTIONS TO VISIBILITY.

WYZ001-281100-
YELLOWSTONE NATIONAL PARK

CITY           SKY/WX    TMP DP  RH WIND       PRES   REMARKS
LK YELLOWSTONE   N/A     37  35  92 CALM      30.38S
W YELLOWSTONE  NOT AVBL

$$
WYZ002>013-054>058-071-098>099-281100-
NORTHERN WYOMING

CITY           SKY/WX    TMP DP  RH WIND       PRES   REMARKS
JACKSON        CLEAR     43  41  93 N6        30.30R
CODY           CLEAR     57  46  67 CALM      30.14S
GREYBULL       CLEAR     56  50  80 CALM      30.09S
WORLAND        PTCLDY    54  51  90 CALM      30.10S
SHERIDAN       CLEAR     51  46  83 SW3       30.05S
BUFFALO        PTCLDY    58  43  57 W8        30.11S
GILLETTE       PTCLDY    57  52  83 CALM      30.06S
HULETT         FAIR      57  54  88 MISG      30.07
NEWCASTLE      FAIR      59  57  94 NW5       30.07

$$
WYZ014>020-022>026-101>103-281100-
CENTRAL WYOMING

CITY           SKY/WX    TMP DP  RH WIND       PRES   REMARKS
BIG PINEY      CLEAR     43  41  93 VRB3      30.31S
PINEDALE       SUNNY     41  41 100 NW3       30.31S
DUBOIS         FAIR      45  37  76 NW10      30.30S
LANDER         PTCLDY    51  46  83 CALM      30.18S
RIVERTON       PTCLDY    50  49  96 W8        30.19F
CASPER         CLOUDY    56  53  90 SW9       30.14S
DOUGLAS        CLOUDY    59  55  87 NW10      30.11S

$$
WYZ021-027>030-104>119-281100-
SOUTHERN WYOMING

CITY           SKY/WX    TMP DP  RH WIND       PRES   REMARKS
EVANSTON       CLEAR     46  45  96 S6        30.35S
KEMMERER       SUNNY     46  45  93 W7        30.34S
FORT BRIDGER   FAIR      52  47  83 W12       30.35S
ROCK SPRINGS   PTCLDY    48  46  93 SW7       30.29S
DIXON          DRIZZLE   51  50  95 SW5       30.30F
RAWLINS        LGT RAIN  51  49  92 W6        30.25F
SARATOGA       CLOUDY    50  46  87 SE3       30.28S
LARAMIE        PTCLDY    44  41  89 SE5       30.23S
CHEYENNE       PTCLDY    50  44  80 NW5       30.16F
TORRINGTON     CLOUDY    59  57  93 NW7       30.05S
PINE BLUFFS    FAIR      52  46  82 W5        30.11F

$$



USA.gov is the U.S. government's official web portal to all federal, state and local government web resources and services.